Home > Weather > Papeete > Past weeks

Flag for French Polynesia Past Weather in Papeete, Tahiti, French Polynesia — Yesterday and Last 2 Weeks

Now
77 °F

Sprinkles. Broken clouds.


Feels Like: 78 °F
Forecast: 75 / 85 °F
Wind: 6 mph from South

Location: Tahiti-Faaa

Current Time: Aug 27, 2016 at 4:36:33 PM

Latest Report: Aug 27, 2016 at 4:00 PM


Visibility: 5 mi

Pressure: 29.98 "Hg

Humidity: 83%

Dew Point: 72 °F

Location of PapeeteLocation

Past Weather in Papeete — Graph

°F

Papeete Temperature Yesterday

Maximum temperature yesterday: 86 °F (at 2:00 PM)
Minimum temperature yesterday: 73 °F (at 12:00 AM)
Average temperature yesterday: 79 °F

High & Low Weather Summary for the Past Weeks

 TemperatureHumidityPressure
High86 °F (Aug 13, 3:00 PM)100% (Aug 23, 8:00 AM)30.07 "Hg (Aug 23, 8:00 AM)
Low70 °F (Aug 18, 1:00 AM)45% (Aug 17, 5:00 PM)29.86 "Hg (Aug 16, 4:30 AM)
Average78 °F72%29.94 "Hg
* Reported Aug 12 3:00 PM — Aug 27 3:00 PM, Papeete, Weather by CustomWeather, © 2016

Note: Actual official high and low records may vary slightly from our data, if they occured in-between our weather recording intervals... More about our weather records

Advertising

Papeete Weather History for the Previous 24 Hours

Scroll right to see more
 ConditionsComfort  
Time TempWeatherWind HumidityBarometerVisibility
3:00 PM
Sat, Aug 27
81 °FScattered showers. Broken clouds.6 mph74%29.98 "HgN/A
2:30 PM81 °FScattered clouds.7 mph74%29.98 "HgN/A
2:00 PM79 °FScattered clouds.6 mph79%29.98 "HgN/A
1:30 PM79 °FSprinkles. Partly sunny.7 mph79%29.98 "Hg2 mi
1:00 PM82 °FBroken clouds.7 mph66%29.98 "HgN/A
12:30 PM84 °FScattered showers. Scattered clouds.8 mph62%30.01 "HgN/A
12:00 PM84 °FScattered showers. Scattered clouds.6 mph66%30.01 "HgN/A
11:30 AM82 °FScattered showers. Scattered clouds.7 mph66%30.01 "HgN/A
11:00 AM82 °FScattered showers. Scattered clouds.5 mph66%30.04 "HgN/A
10:30 AM82 °FScattered clouds.5 mph70%30.04 "HgN/A
10:00 AM81 °FScattered clouds.5 mph74%30.04 "HgN/A
9:37 AM82 °FScattered clouds.3 mph66%30.04 "HgN/A
9:00 AM81 °FScattered showers. Scattered clouds.3 mph74%30.04 "HgN/A
8:30 AM81 °FScattered showers. Scattered clouds.5 mph70%30.04 "HgN/A
8:00 AM81 °FScattered showers. Scattered clouds.6 mph74%30.04 "HgN/A
7:30 AM79 °FScattered clouds.7 mph79%30.01 "HgN/A
7:00 AM77 °FScattered clouds.3 mph79%30.01 "HgN/A
6:30 AM75 °FPassing clouds.6 mph83%30.01 "HgN/A
6:00 AM75 °FPassing clouds.12 mph83%30.01 "HgN/A
5:30 AM77 °FOvercast.7 mph79%29.98 "HgN/A
5:00 AM77 °FWarm.3 mph79%29.98 "HgN/A
4:30 AM75 °FOvercast.6 mph83%29.98 "HgN/A
4:00 AM75 °FMostly cloudy.9 mph83%29.98 "HgN/A
3:30 AM75 °FMostly cloudy.3 mph83%29.98 "HgN/A
3:00 AM75 °FPartly cloudy.2 mph83%29.98 "HgN/A
2:30 AM75 °FPartly cloudy.3 mph83%29.98 "HgN/A
2:00 AM75 °FPassing clouds.3 mph83%29.98 "HgN/A
1:30 AM75 °FPassing clouds.3 mph83%29.98 "HgN/A
1:00 AM75 °FPassing clouds.6 mph83%30.01 "HgN/A
12:30 AM75 °FPassing clouds.3 mph83%30.01 "HgN/A
12:17 AM75 °FPassing clouds.3 mph83%30.01 "HgN/A
11:30 PM
Fri, Aug 26
75 °FPassing clouds.No wind83%30.01 "HgN/A
11:00 PM75 °FPassing clouds.6 mph83%30.04 "HgN/A
10:30 PM77 °FPassing clouds.3 mph79%30.04 "HgN/A
10:17 PM77 °FPassing clouds.3 mph79%30.04 "HgN/A
9:30 PM77 °FPassing clouds.5 mph79%30.04 "HgN/A
9:00 PM77 °FPassing clouds.3 mph79%30.04 "HgN/A
8:30 PM77 °FPassing clouds.3 mph79%30.04 "HgN/A
8:00 PM79 °FPassing clouds.3 mph74%30.04 "HgN/A
7:30 PM79 °FPassing clouds.8 mph74%30.01 "HgN/A
7:00 PM79 °FPassing clouds.5 mph74%30.01 "HgN/A
6:30 PM81 °FPassing clouds.1 mph66%30.01 "HgN/A
6:00 PM81 °FPassing clouds.3 mph66%30.01 "HgN/A
5:30 PM82 °FPartly sunny.6 mph66%29.98 "HgN/A
5:00 PM82 °FPartly sunny.8 mph66%29.98 "HgN/A
4:00 PM84 °FScattered clouds.5 mph66%29.98 "HgN/A
Weather by CustomWeather, © 2016

See weather overviewHow to use our weather pages